| time (UTC) | temp F | wind direction | speed MPH | gust MPH | rain 1hr in | rain 24hr in | rain mn in | humidity % | barometer mb |
| 20260507001531 | 60 | 93 | 3.0 | 6.0 | 0.00 | 0.00 | 0.00 | 84 | 1011.9 |
| 20260507000028 | 60 | 71 | 3.0 | 5.0 | 0.00 | 0.00 | 0.00 | 84 | 1012.1 |
| 20260506234531 | 61 | 95 | 3.0 | 7.0 | 0.00 | 0.00 | 0.00 | 84 | 1012.2 |
| 20260506233030 | 61 | 73 | 3.0 | 6.0 | 0.00 | 0.00 | 0.00 | 84 | 1012.3 |
| 20260506231531 | 61 | 82 | 3.0 | 5.0 | 0.00 | 0.00 | 0.00 | 84 | 1012.4 |
| 20260506230039 | 61 | 74 | 3.0 | 7.0 | 0.00 | 0.00 | 0.00 | 84 | 1012.3 |
| 20260506224536 | 61 | 90 | 2.0 | 5.0 | 0.00 | 0.00 | 0.00 | 84 | 1012.3 |
| 20260506223030 | 61 | 70 | 3.0 | 5.0 | 0.00 | 0.00 | 0.00 | 84 | 1012.3 |
| 20260506221528 | 61 | 62 | 2.0 | 5.0 | 0.00 | 0.00 | 0.00 | 84 | 1012.4 |
| 20260506220035 | 61 | 60 | 1.0 | 3.0 | 0.00 | 0.00 | 0.00 | 83 | 1012.3 |
| 20260506214529 | 61 | 110 | 2.0 | 4.0 | 0.00 | 0.00 | 0.00 | 83 | 1012.5 |
| 20260506213030 | 62 | 110 | 2.0 | 8.0 | 0.00 | 0.00 | 0.00 | 83 | 1012.7 |
| 20260506211533 | 62 | 80 | 3.0 | 5.0 | 0.00 | 0.00 | 0.00 | 83 | 1012.7 |
| 20260506210031 | 62 | 65 | 2.0 | 5.0 | 0.00 | 0.00 | 0.00 | 82 | 1012.7 |
| 20260506204534 | 62 | 64 | 3.0 | 5.0 | 0.00 | 0.00 | 0.00 | 82 | 1012.6 |
| 20260506203031 | 62 | 83 | 3.0 | 7.0 | 0.00 | 0.00 | 0.00 | 81 | 1012.5 |
| 20260506201537 | 62 | 83 | 3.0 | 8.0 | 0.00 | 0.00 | 0.00 | 81 | 1012.3 |
| 20260506200030 | 63 | 91 | 4.0 | 7.0 | 0.00 | 0.00 | 0.00 | 80 | 1012.0 |
| 20260506194528 | 63 | 80 | 5.0 | 12.0 | 0.00 | 0.00 | 0.00 | 80 | 1011.8 |
| 20260506193027 | 63 | 90 | 8.0 | 12.0 | 0.00 | 0.00 | 0.00 | 79 | 1011.8 |
| 20260506191530 | 64 | 80 | 7.0 | 12.0 | 0.00 | 0.00 | 0.00 | 77 | 1011.6 |
| 20260506190030 | 64 | 97 | 8.0 | 14.0 | 0.00 | 0.00 | 0.00 | 77 | 1011.6 |
| 20260506184532 | 64 | 88 | 10.0 | 15.0 | 0.00 | 0.00 | 0.00 | 76 | 1011.3 |
| 20260506183032 | 65 | 84 | 8.0 | 15.0 | 0.00 | 0.00 | 0.00 | 74 | 1011.2 |
| 20260506181531 | 65 | 101 | 10.0 | 15.0 | 0.00 | 0.00 | 0.00 | 73 | 1011.1 |
| 20260506180032 | 65 | 85 | 5.0 | 15.0 | 0.00 | 0.00 | 0.00 | 73 | 1011.2 |
| 20260506174533 | 65 | 76 | 10.0 | 18.0 | 0.00 | 0.00 | 0.00 | 72 | 1011.1 |
| 20260506173030 | 66 | 98 | 10.0 | 18.0 | 0.00 | 0.00 | 0.00 | 72 | 1011.0 |
| 20260506171539 | 66 | 148 | 8.0 | 17.0 | 0.00 | 0.00 | 0.00 | 71 | 1010.9 |
| 20260506170029 | 66 | 121 | 6.0 | 12.0 | 0.00 | 0.00 | 0.00 | 71 | 1011.0 |
| 20260506164531 | 67 | 148 | 10.0 | 18.0 | 0.00 | 0.00 | 0.00 | 69 | 1010.9 |
| 20260506163030 | 67 | 105 | 7.0 | 15.0 | 0.00 | 0.00 | 0.00 | 68 | 1010.7 |
| 20260506161532 | 66 | 96 | 12.0 | 22.0 | 0.00 | 0.00 | 0.00 | 69 | 1010.6 |
| 20260506160030 | 67 | 131 | 10.0 | 21.0 | 0.00 | 0.00 | 0.00 | 67 | 1010.7 |
| 20260506154534 | 68 | 131 | 9.0 | 19.0 | 0.00 | 0.00 | 0.00 | 67 | 1010.4 |
| 20260506153030 | 68 | 124 | 9.0 | 23.0 | 0.00 | 0.00 | 0.00 | 68 | 1010.6 |
| 20260506151533 | 68 | 105 | 12.0 | 19.0 | 0.00 | 0.00 | 0.00 | 67 | 1010.8 |
| 20260506150028 | 69 | 99 | 16.0 | 22.0 | 0.00 | 0.00 | 0.00 | 67 | 1010.7 |
| 20260506144531 | 69 | 105 | 16.0 | 23.0 | 0.00 | 0.00 | 0.00 | 68 | 1010.7 |
| 20260506143032 | 68 | 119 | 17.0 | 27.0 | 0.00 | 0.00 | 0.00 | 68 | 1010.7 |
| 20260506141528 | 69 | 128 | 15.0 | 26.0 | 0.00 | 0.00 | 0.00 | 68 | 1010.8 |
| 20260506140033 | 70 | 132 | 11.0 | 22.0 | 0.00 | 0.00 | 0.00 | 67 | 1011.0 |
| 20260506134528 | 69 | 135 | 12.0 | 21.0 | 0.00 | 0.00 | 0.00 | 67 | 1011.1 |
| 20260506133031 | 69 | 158 | 14.0 | 27.0 | 0.00 | 0.00 | 0.00 | 67 | 1011.1 |
| 20260506131534 | 71 | 118 | 10.0 | 23.0 | 0.00 | 0.00 | 0.00 | 66 | 1011.1 |
| 20260506130028 | 70 | 105 | 12.0 | 26.0 | 0.00 | 0.00 | 0.00 | 66 | 1011.1 |
| 20260506124533 | 71 | 88 | 10.0 | 25.0 | 0.00 | 0.00 | 0.00 | 63 | 1011.3 |
| 20260506123030 | 71 | 154 | 9.0 | 20.0 | 0.00 | 0.00 | 0.00 | 64 | 1011.4 |
| 20260506121529 | 70 | 142 | 10.0 | 23.0 | 0.00 | 0.00 | 0.00 | 65 | 1011.4 |
| 20260506120032 | 71 | 107 | 11.0 | 21.0 | 0.00 | 0.00 | 0.00 | 63 | 1011.6 |
| 20260506114536 | 70 | 104 | 12.0 | 19.0 | 0.00 | 0.00 | 0.00 | 62 | 1011.7 |
| 20260506113028 | 70 | 109 | 11.0 | 22.0 | 0.00 | 0.00 | 0.00 | 63 | 1011.8 |
| 20260506111527 | 70 | 82 | 9.0 | 17.0 | 0.00 | 0.00 | 0.00 | 64 | 1011.9 |
| 20260506110034 | 71 | 96 | 8.0 | 19.0 | 0.00 | 0.00 | 0.00 | 61 | 1011.9 |
| 20260506104531 | 70 | 78 | 10.0 | 18.0 | 0.00 | 0.00 | 0.00 | 62 | 1012.0 |
| 20260506103030 | 71 | 99 | 12.0 | 18.0 | 0.00 | 0.00 | 0.00 | 59 | 1012.1 |
| 20260506101530 | 69 | 66 | 7.0 | 14.0 | 0.00 | 0.00 | 0.00 | 62 | 1012.2 |
| 20260506100027 | 69 | 62 | 9.0 | 14.0 | 0.00 | 0.00 | 0.00 | 60 | 1012.2 |
| 20260506094531 | 68 | 33 | 5.0 | 12.0 | 0.00 | 0.00 | 0.00 | 66 | 1012.2 |
| 20260506093028 | 69 | 70 | 9.0 | 18.0 | 0.00 | 0.00 | 0.00 | 65 | 1012.1 |
| 20260506091529 | 67 | 50 | 8.0 | 12.0 | 0.00 | 0.00 | 0.00 | 67 | 1011.9 |
| 20260506090030 | 69 | 28 | 3.0 | 10.0 | 0.00 | 0.00 | 0.00 | 66 | 1011.9 |
| 20260506084529 | 66 | 0 | 1.0 | 4.0 | 0.00 | 0.00 | 0.00 | 66 | 1011.9 |
| 20260506083028 | 65 | 331 | 1.0 | 4.0 | 0.00 | 0.00 | 0.00 | 66 | 1011.9 |
| 20260506081528 | 64 | 237 | 3.0 | 7.0 | 0.00 | 0.00 | 0.00 | 65 | 1012.0 |
| 20260506073030 | 62 | 261 | 4.0 | 7.0 | 0.00 | 0.00 | 0.00 | 64 | 1011.9 |
| 20260506071531 | 62 | 273 | 5.0 | 8.0 | 0.00 | 0.00 | 0.00 | 65 | 1011.8 |
| 20260506061530 | 58 | 0 | 0.0 | 2.0 | 0.00 | 0.00 | 0.00 | 71 | 1011.7 |
| 20260506044536 | 56 | 59 | 1.0 | 3.0 | 0.00 | 0.00 | 0.00 | 72 | 1010.9 |
| 20260506043028 | 57 | 277 | 0.0 | 4.0 | 0.00 | 0.00 | 0.00 | 73 | 1010.8 |
| 20260506041528 | 57 | 281 | 1.0 | 3.0 | 0.00 | 0.00 | 0.00 | 74 | 1010.7 |
| 20260506040030 | 57 | 0 | 0.0 | 3.0 | 0.00 | 0.00 | 0.00 | 74 | 1010.7 |
| 20260506034530 | 57 | 268 | 0.0 | 2.0 | 0.00 | 0.00 | 0.00 | 74 | 1010.8 |
| 20260506033033 | 57 | 0 | 0.0 | 4.0 | 0.00 | 0.00 | 0.00 | 75 | 1010.9 |
| 20260506031535 | 57 | 0 | 0.0 | 2.0 | 0.00 | 0.00 | 0.00 | 75 | 1010.9 |
| 20260506030051 | 57 | 0 | 0.0 | 1.0 | 0.00 | 0.00 | 0.00 | 76 | 1010.8 |
| 20260506024530 | 57 | 0 | 0.0 | 1.0 | 0.00 | 0.00 | 0.00 | 76 | 1010.9 |
| 20260506023030 | 57 | 0 | 0.0 | 3.0 | 0.00 | 0.00 | 0.00 | 77 | 1010.8 |
| 20260506021532 | 57 | 0 | 0.0 | 2.0 | 0.00 | 0.00 | 0.00 | 78 | 1010.8 |
| 20260506020032 | 57 | 0 | 0.0 | 2.0 | 0.00 | 0.00 | 0.00 | 78 | 1011.0 |
| 20260506014528 | 58 | 289 | 1.0 | 3.0 | 0.00 | 0.00 | 0.00 | 79 | 1011.0 |
| 20260506013031 | 58 | 0 | 0.0 | 2.0 | 0.00 | 0.00 | 0.00 | 80 | 1011.0 |
| 20260506011535 | 58 | 0 | 0.0 | 2.0 | 0.00 | 0.00 | 0.00 | 81 | 1011.0 |
| 20260506010030 | 59 | 289 | 2.0 | 3.0 | 0.00 | 0.00 | 0.00 | 81 | 1011.1 |
| 20260506004544 | 60 | 0 | 0.0 | 0.0 | 0.00 | 0.00 | 0.00 | 82 | 1011.1 |
| 20260506003036 | 60 | 0 | 0.0 | 1.0 | 0.00 | 0.00 | 0.00 | 81 | 1011.2 |